Regional Weather Roundup
Issued by NWS

Home | Current Version | Previous Version | Graphics & Text | Print | Product List | Glossary Off
Versions: 1 2 3 4 5 6 7 8 9 10 11 12 13 14 15 16 17 18 19 20 21 22 23 24 25 26 27 28 29 30 31 32 33 34 35 36 37 38 39 40 41 42 43 44 45 46 47 48 49 50

488
ASUS43 KMPX 250601
RWRMN
WEATHER ROUNDUP FOR MINNESOTA
NATIONAL WEATHER SERVICE TWIN CITIES/CHANHASSEN MN
100 AM CDT WED MAY 25 2016


NOTE: "FAIR" INDICATES FEW OR NO CLOUDS BELOW 12,000 FEET WITH NO
SIGNIFICANT WEATHER AND/OR OBSTRUCTIONS TO VISIBILITY. N/A MEANS
CURRENT SKY AND/OR WEATHER CONDITIONS ARE NOT AVAILABLE.

MNZ060>063-068>070-250700-
   Twin Cities Metro

CITY           SKY/WX    TMP DP  RH WIND       PRES   REMARKS
TWIN CITIES    PTCLDY    70  58  65 SE9       29.91S
6HR MIN TEMP:  70; 6HR MAX TEMP:  81;

ST PAUL        CLEAR     66  58  75 CALM      29.91S
CRYSTAL        CLOUDY    62  55  77 CALM      29.90R
BLAINE         CLEAR     64  55  72 CALM      29.92R
EDEN PRAIRIE   CLOUDY    70  56  61 SE7       29.89S
6HR MIN TEMP:  68; 6HR MAX TEMP:  80;

SOUTH ST PAUL  CLEAR     68  57  67 CALM      29.91S
LAKE ELMO      FAIR      63  55  77 CALM      29.94R
$$
MNZ001>005-007-008-013>017-022>024-027-028-250700-
   Northwest Minnesota

CITY           SKY/WX    TMP DP  RH WIND       PRES   REMARKS
BEMIDJI        CLEAR     54  48  81 CALM      29.95R
HALLOCK          N/A     61  52  72 E8        29.90R HAZE
ROSEAU         CLEAR     61  54  77 SE12      29.95R
WARROAD        CLEAR     59  54  82 SE7       29.96R
THIEF RVR FALL CLEAR     63  48  59 E12       29.94R
CROOKSTON      MOCLDY    64  48  55 E9        29.91S
FOSSTON        PTCLDY    55  46  71 SE3       29.94S
DETROIT LAKES  CLEAR     63  54  72 SE8       29.92F
MOORHEAD       MOCLDY    64  52  63 E8        29.87F
PARK RAPIDS    MOCLDY    59  52  77 CALM      29.94R
MAHNOMEN       FAIR      62  52  71 E5        29.92R
$$
MNZ006-009>011-018-025>026-250700-
   North Central Minnesota

CITY           SKY/WX    TMP DP  RH WIND       PRES   REMARKS
BAUDETTE       CLEAR     55  50  83 SE6       29.96R
FLAG ISLAND    CLEAR     59  54  82 SE5       29.95S
INTL FALLS     CLEAR     51  50  96 SE6       29.97S
6HR MIN TEMP:  51; 6HR MAX TEMP:  66;

WASKISH        CLEAR     55  52  88 E5        29.96R
BIG FORK       CLEAR     57  52  82 E7        29.97S
LONGVILLE      CLEAR     54  52  94 CALM      29.94S
CRANE LAKE     CLEAR     52  48  87 CALM      30.01S
ORR            PTCLDY    55  48  76 SE5       29.97F
COOK           CLOUDY    57  54  88 SE7       30.00F
WALKER         FAIR      56  52  88 CALM      29.95R
$$
MNZ012-019>021-037-250700-
   Northeast Minnesota

CITY           SKY/WX    TMP DP  RH WIND       PRES   REMARKS
DULUTH         FOG       50  49  96 E13       30.02R VSB 1/2
6HR MIN TEMP:  50; 6HR MAX TEMP:  61;

ELY            CLEAR     54  50  87 S3        30.02R
HIBBING        CLOUDY    55  53  93 SE15      30.00R
EVELETH        CLOUDY    57  54  88 E9        30.02F
DULUTH HARBOR  MIX PCPN  48  46  93 NE20      30.03F VSB 3/4
TWO HARBORS    CLOUDY    54  48  82 E9G16     30.02S
SILVER BAY     FOG       52  48  87 NE9       30.02F VSB 3/4
GRAND MARAIS     N/A     47  46  97 NE6       30.05R
G MARAIS ARPRT CLOUDY    50  46  87 E6        30.06R
$$
MNZ029>031-032-039>041-046>048-054>057-064-250700-
   West Central Minnesota

CITY           SKY/WX    TMP DP  RH WIND       PRES   REMARKS
FERGUS FALLS   CLEAR     66  54  63 E12       29.85S
WHEATON        CLEAR     66  55  68 E12       29.87S
MORRIS         PTCLDY    64  54  68 E14       29.87R
ALEXANDRIA     PTCLDY    63  51  65 E10       29.92R
ELBOW LAKE     FAIR      64  54  70 SE16      29.89S
WADENA         CLEAR     57  54  88 E3        29.92S
GLENWOOD       CLOUDY    61  54  77 E12       29.91S
APPLETON       MOCLDY    64  54  68 E8        29.86R
ORTONVILLE     MOCLDY    64  54  68 E8        29.85S
MADISON        PTCLDY    66  50  55 SE9       29.85R
WILLMAR        FAIR      66  57  72 E8        29.89S
$$
MNZ033>034-036-042>043-049>051-058-059-250700-
   Central Minnesota

CITY           SKY/WX    TMP DP  RH WIND       PRES   REMARKS
ST CLOUD       CLOUDY    64  53  67 E6        29.91F
6HR MIN TEMP:  64; 6HR MAX TEMP:  77;

SAUK CENTRE    FAIR      60  53  76 E9        29.91S
PAYNESVILLE    CLOUDY    65  56  71 E3        29.91S
AITKIN         CLEAR     57  52  82 E3        29.94R
PINE RIVER     CLEAR     54  54 100 CALM      29.97S FOG
BRAINERD       CLEAR     55  54  96 CALM      29.94R
STAPLES        CLEAR     57  54  88 CALM      29.93R
LONG PRAIRIE   FAIR      59  52  77 NE8       29.93S
LITTLE FALLS   CLOUDY    61  50  67 CALM      29.92S
LITCHFIELD     CLOUDY    64  61  88 CALM      29.90F
BUFFALO        CLOUDY    65  56  72 E5        29.91S
MAPLE LAKE     CLOUDY    64  59  86 CALM      29.92S
HUTCHINSON     CLEAR     64  59  84 E6        29.91S
$$
MNZ037-044-045-052-053-250700-
   East Central Minnesota

CITY           SKY/WX    TMP DP  RH WIND       PRES   REMARKS
PRINCETON      CLOUDY    64  55  72 E5        29.94R
MORA           CLOUDY    59  52  77 NE3       29.96S
CAMBRIDGE      CLOUDY    66  54  63 CALM      29.92R
RUSH CITY      CLOUDY    61  57  86 NE8       29.94S
MOOSE LAKE     FOG       52  50  93 E9        29.97F VSB 1
HINCKLEY       FAIR      55  54  94 N7        29.96S
CLOQUET        FOG       52  50  93 E14       30.00S VSB 3/4
MCGREGOR       CLOUDY    55  54  94 E9        29.98R
$$
MNZ071>073-080-081-089-090-097-098-250700-
   Southwest Minnesota

CITY           SKY/WX    TMP DP  RH WIND       PRES   REMARKS
MONTEVIDEO     CLOUDY    64  52  63 SE6       29.88R
GRANITE FALLS  CLOUDY    70  54  57 SE7       29.89R
CANBY          CLOUDY    69  56  62 E8        29.86S
MARSHALL       CLOUDY    67  55  65 S8        29.87S
REDWOOD FALLS  CLOUDY    65  56  72 SE8       29.87S
OLIVIA         CLOUDY    59  48  67 SE7       29.88R
PIPESTONE      PTCLDY    68  61  77 S8        29.87S
WINDOM         CLOUDY    66  61  82 CALM      29.90R
WORTHINGTON    CLOUDY    68  62  81 S9        29.90R
JACKSON        CLOUDY    66  59  77 S7        29.91R
TRACY          CLOUDY    70  59  68 S8        29.88S
SLAYTON        CLOUDY    66  61  85 SE6       29.90R
$$
MNZ065>067-074>077-082>085-091>093-250700-
   South Central Minnesota

CITY           SKY/WX    TMP DP  RH WIND       PRES   REMARKS
MANKATO        CLEAR     68  55  64 SE8       29.91S
NEW ULM        CLOUDY    68  55  64 SE8       29.89R
ST JAMES       CLEAR     63  55  77 SE7       29.90R
FAIRMONT       CLEAR     66  48  52 S7        29.90S
FARIBAULT      CLOUDY    63  55  77 E1        29.92F
OWATONNA       CLEAR     64  55  72 SE6       29.93S
WASECA         CLEAR     63  55  77 E9        29.93S
ALBERT LEA     CLEAR     63  59  88 E3        29.92S
$$
MNZ078>079-086>088-094>096-250700-
   Southeast Minnesota

CITY           SKY/WX    TMP DP  RH WIND       PRES   REMARKS
ROCHESTER      CLEAR     63  58  83 E8        29.94S
6HR MIN TEMP:  63; 6HR MAX TEMP:  79;

RED WING       CLEAR     59  55  88 CALM      29.92R
STANTON        CLEAR     65  56  72 CALM      29.90F
DODGE CENTER   CLEAR     64  54  68 E6        29.94S
WINONA         MOCLDY    63  59  88 CALM      29.94S
AUSTIN         CLEAR     64  57  77 E6        29.94R
PRESTON        CLEAR     67  57  70 E6        29.95F
$$
ABBREVIATIONS USED IN REMARKS
   TC - TEMPERATURES IN CELSIUS
  WCI - WIND CHILL INDEX
   HX - HEAT INDEX
  VSB - VISIBILITY
$$




USA.gov is the U.S. government's official web portal to all federal, state and local government web resources and services.